Project,Study,Ord_Occ,Event_Num,Cast_ID,Date_Time_UTC,Date_Time_PST,Lat_Dec,Lon_Dec,Sta_ID,Line,Sta,Depth,Pressure,PrQ,Temp1,Temp1Q,Temp2,Temp2Q,TempAve,Salt1,Salt1Q,Salt1_Corr,Salt2,Salt2Q,Salt2_Corr,SaltAve_Corr,Ox1,Ox1Q,Ox1_CruiseCorr,Ox1_StaCorr,Ox2,Ox2Q,Ox2_CruiseCorr,Ox2_StaCorr,OxAve_StaCorr,Ox1uM,Ox1uM_CruiseCorr,Ox1uM_StaCorr,Ox2uM,Ox2uM_CruiseCorr,Ox2uM_StaCorr,OxAveuM_StaCorr,FluorV,FluorQ,EstChl_CruiseCorr,EstChl_StaCorr,ISUSV,ISUSQ,EstNO3_CruiseCorr,EstNO3_StaCorr,SigThetaTS1,SigThetaTS1Q,SigThetaTS2,SigThetaTS2Q,BAT,XMiss,TransQ,pH,pHQ,SPAR,SPARQ,PAR,PARQ,PoT1,PoT2,DynHt,SVA,OxSat1,OxSat2,BTL_Depth,BTL_Temp,SaltB,OxB,OxBuM,Chl-a,Phaeo,NO3,NO2,NH4,PO4,SIL
CalCOFI,2105SH,010,,2105_010d,06-May-2021 03:31:08,05-May-2021 19:31:08,31.51715,-120.24023,093.3 070.0,093.3,070.0,3.000,3.021,,14.2799,,14.2679,,14.2739,33.1835,,33.1847,33.1826,,33.1845,33.1846,5.7910,,6.1223,6.1540,5.8402,,6.1087,6.1264,6.1402,252.386,266.3431,265.4038,254.529,277.7061,264.7555,265.0797,0.1565,,0.9129,0.5155,2.6261,,1.2906,,24.7254,,24.7271,,,,,,,,,,,14.2794,14.2675,-0.0022,321.007,99.156,99.973,3,14.383,33.2073,6.210,270.65,0.506,0.119,1.17,0.039,0.00,0.41,1.80
CalCOFI,2105SH,010,,2105_010d,06-May-2021 03:31:24,05-May-2021 19:31:24,31.51712,-120.24026,093.3 070.0,093.3,070.0,4.000,4.028,,14.2453,,14.2521,,14.2487,33.1830,,33.1842,33.1820,,33.1839,33.1841,5.8112,,6.1435,6.1751,5.8487,,6.1175,6.1352,6.1552,253.265,267.2620,266.3210,254.900,278.6554,265.1390,265.7300,0.1643,,0.9666,0.5460,2.6233,,1.2906,,24.7322,,24.7301,,,,,,,,,,,14.2448,14.2515,0.0085,320.380,99.432,100.087,,,,,,,,,,,,
CalCOFI,2105SH,010,,2105_010d,06-May-2021 03:31:33,05-May-2021 19:31:33,31.51709,-120.24026,093.3 070.0,093.3,070.0,5.000,5.035,,14.2550,,14.2568,,14.2559,33.1831,,33.1843,33.1825,,33.1844,33.1844,5.7910,,6.1223,6.1540,5.8409,,6.1094,6.1271,6.1406,252.387,266.3442,265.4048,254.560,277.7072,264.7875,265.0962,0.1556,,0.9067,0.5119,2.6241,,1.2906,,24.7303,,24.7295,,,,,,,,,,,14.2543,14.2560,0.0145,320.591,99.107,99.964,,,,,,,,,,,,
CalCOFI,2105SH,010,,2105_010d,06-May-2021 03:31:38,05-May-2021 19:31:38,31.51708,-120.24026,093.3 070.0,093.3,070.0,6.000,6.042,,14.2475,,14.2315,,14.2395,33.1836,,33.1848,33.1821,,33.1840,33.1844,5.7417,,6.0708,6.1023,5.8331,,6.1013,6.1191,6.1107,250.234,264.0934,263.1582,254.219,275.3819,264.4351,263.7967,0.1482,,0.8554,0.4830,2.6231,,1.2906,,24.7323,,24.7345,,,,,,,,,,,14.2467,14.2306,0.0183,320.432,98.247,99.778,,,,,,,,,,,,
CalCOFI,2105SH,010,,2105_010d,06-May-2021 03:31:39,05-May-2021 19:31:39,31.51708,-120.24026,093.3 070.0,093.3,070.0,7.000,7.049,,14.2507,,14.2449,,14.2478,33.1828,,33.1840,33.1826,,33.1845,33.1843,5.7526,,6.0822,6.1138,5.8418,,6.1103,6.1281,6.1210,250.709,264.5900,263.6538,254.598,275.8949,264.8268,264.2403,0.1582,,0.9246,0.5221,2.6226,,1.2906,,24.7311,,24.7321,,,,,,,,,,,14.2496,14.2439,0.0216,320.580,98.439,99.955,,,,,,,,,,,,
CalCOFI,2105SH,010,,2105_010d,06-May-2021 03:31:40,05-May-2021 19:31:40,31.51706,-120.24026,093.3 070.0,093.3,070.0,8.000,8.056,,14.1893,,14.1782,,14.1838,33.1846,,33.1858,33.1774,,33.1793,33.1826,5.7842,,6.1152,6.1468,5.8448,,6.1134,6.1312,6.1390,252.083,266.0264,265.0876,254.725,277.3788,264.9581,265.0229,0.1635,,0.9611,0.5429,2.6222,,1.2906,,24.7453,,24.7421,,,,,,,,,,,14.1882,14.1771,0.0248,319.247,98.859,99.867,,,,,,,,,,,,
CalCOFI,2105SH,010,,2105_010d,06-May-2021 03:31:41,05-May-2021 19:31:41,31.51706,-120.24026,093.3 070.0,093.3,070.0,9.000,9.063,,14.1493,,14.1503,,14.1498,33.1806,,33.1818,33.1788,,33.1807,33.1813,5.8001,,6.1318,6.1635,5.8416,,6.1101,6.1278,6.1457,252.777,266.7519,265.8118,254.585,278.1284,264.8134,265.3126,0.1757,,1.0445,0.5906,2.6217,,1.2906,,24.7506,,24.7490,,,,,,,,,,,14.1480,14.1491,0.0280,318.771,99.049,99.758,,,,,,,,,,,,
CalCOFI,2105SH,010,,2105_010d,06-May-2021 03:31:44,05-May-2021 19:31:44,31.51707,-120.24026,093.3 070.0,093.3,070.0,10.000,10.070,,14.1363,,14.1356,,14.1360,33.1796,,33.1808,33.1782,,33.1801,33.1805,5.7815,,6.1124,6.1440,5.8502,,6.1190,6.1367,6.1404,251.965,265.9030,264.9645,254.959,277.2514,265.2000,265.0823,0.1625,,0.9542,0.5390,2.6205,,1.2906,,24.7526,,24.7516,,,,,,,,,,,14.1349,14.1342,0.0313,318.613,98.704,99.874,10,14.239,,,265.85,0.454,0.137,1.02,0.056,0.00,0.39,1.60
CalCOFI,2105SH,010,,2105_010d,06-May-2021 03:31:47,05-May-2021 19:31:47,31.51706,-120.24026,093.3 070.0,093.3,070.0,11.000,11.077,,14.1379,,14.1402,,14.1391,33.1794,,33.1806,33.1789,,33.1808,33.1807,5.7764,,6.1071,6.1387,5.8399,,6.1084,6.1261,6.1324,251.742,265.6699,264.7318,254.509,277.0106,264.7348,264.7333,0.1624,,0.9535,0.5386,2.6194,,1.2906,,24.7521,,24.7512,,,,,,,,,,,14.1364,14.1386,0.0346,318.692,98.620,99.708,,,,,,,,,,,,
CalCOFI,2105SH,010,,2105_010d,06-May-2021 03:31:48,05-May-2021 19:31:48,31.51706,-120.24028,093.3 070.0,093.3,070.0,12.000,12.084,,14.1347,,14.1418,,14.1383,33.1794,,33.1806,33.1787,,33.1806,33.1806,5.7622,,6.0922,6.1238,5.8426,,6.1112,6.1289,6.1264,251.124,265.0238,264.0869,254.629,276.3431,264.8589,264.4729,0.1714,,1.0152,0.5738,2.6190,,1.2906,,24.7528,,24.7508,,,,,,,,,,,14.1329,14.1400,0.0378,318.654,98.371,99.758,,,,,,,,,,,,
CalCOFI,2105SH,010,,2105_010d,06-May-2021 03:31:49,05-May-2021 19:31:49,31.51704,-120.24028,093.3 070.0,093.3,070.0,13.000,13.091,,14.1363,,14.1353,,14.1358,33.1795,,33.1807,33.1785,,33.1804,33.1806,5.7644,,6.0945,6.1261,5.8361,,6.1044,6.1222,6.1242,251.220,265.1242,264.1871,254.346,276.4468,264.5663,264.3767,0.1771,,1.0541,0.5961,2.6185,,1.2906,,24.7526,,24.7520,,,,,,,,,,,14.1344,14.1335,0.0410,318.702,98.412,99.634,,,,,,,,,,,,
CalCOFI,2105SH,010,,2105_010d,06-May-2021 03:31:50,05-May-2021 19:31:50,31.51704,-120.24028,093.3 070.0,093.3,070.0,14.000,14.098,,14.1340,,14.1347,,14.1344,33.1793,,33.1805,33.1786,,33.1805,33.1805,5.7820,,6.1129,6.1445,5.8408,,6.1093,6.1270,6.1358,251.989,265.9281,264.9895,254.549,277.2773,264.7762,264.8829,0.1828,,1.0928,0.6184,2.6178,,1.2906,,24.7529,,24.7522,,,,,,,,,,,14.1320,14.1327,0.0442,318.698,98.708,99.712,,,,,,,,,,,,
CalCOFI,2105SH,010,,2105_010d,06-May-2021 03:31:52,05-May-2021 19:31:52,31.51704,-120.24029,093.3 070.0,093.3,070.0,15.000,15.105,,14.1258,,14.1274,,14.1266,33.1787,,33.1799,33.1779,,33.1798,33.1799,5.7714,,6.1018,6.1334,5.8345,,6.1028,6.1205,6.1270,251.526,265.4441,264.5064,254.275,276.7773,264.4930,264.4997,0.1622,,0.9522,0.5378,2.6165,,1.2906,,24.7542,,24.7533,,,,,,,,,,,14.1237,14.1253,0.0474,318.605,98.510,99.590,,,,,,,,,,,,
CalCOFI,2105SH,010,,2105_010d,06-May-2021 03:31:55,05-May-2021 19:31:55,31.51704,-120.24030,093.3 070.0,093.3,070.0,16.000,16.112,,14.1220,,14.1228,,14.1224,33.1793,,33.1805,33.1786,,33.1805,33.1805,5.7901,,6.1214,6.1530,5.8292,,6.0973,6.1150,6.1340,252.339,266.2940,265.3548,254.042,277.6553,264.2521,264.8035,0.1558,,0.9081,0.5127,2.6147,,1.2906,,24.7555,,24.7548,,,,,,,,,,,14.1197,14.1205,0.0506,318.506,98.822,99.490,,,,,,,,,,,,
CalCOFI,2105SH,010,,2105_010d,06-May-2021 03:31:57,05-May-2021 19:31:57,31.51702,-120.24030,093.3 070.0,093.3,070.0,17.000,17.119,,14.0916,,14.1039,,14.0978,33.1791,,33.1803,33.1771,,33.1790,33.1797,5.7797,,6.1105,6.1421,5.8324,,6.1006,6.1183,6.1302,251.886,265.8204,264.8820,254.182,277.1661,264.3968,264.6394,0.1641,,0.9652,0.5452,2.6135,,1.2906,,24.7617,,24.7576,,,,,,,,,,,14.0892,14.1014,0.0538,317.943,98.584,99.506,,,,,,,,,,,,
CalCOFI,2105SH,010,,2105_010d,06-May-2021 03:31:58,05-May-2021 19:31:58,31.51702,-120.24030,093.3 070.0,093.3,070.0,18.000,18.126,,14.0815,,14.0821,,14.0818,33.1779,,33.1791,33.1768,,33.1787,33.1789,5.7590,,6.0889,6.1205,5.8228,,6.0907,6.1084,6.1145,250.982,264.8754,263.9387,253.761,276.1898,263.9617,263.9502,0.1704,,1.0084,0.5699,2.6121,,1.2906,,24.7629,,24.7619,,,,,,,,,,,14.0790,14.0795,0.0570,317.860,98.210,99.297,,,,,,,,,,,,
CalCOFI,2105SH,010,,2105_010d,06-May-2021 03:32:00,05-May-2021 19:32:00,31.51702,-120.24030,093.3 070.0,093.3,070.0,19.000,19.133,,14.0794,,14.0800,,14.0797,33.1779,,33.1791,33.1769,,33.1788,33.1790,5.7732,,6.1037,6.1353,5.8245,,6.0924,6.1102,6.1228,251.600,265.5214,264.5836,253.837,276.8572,264.0402,264.3119,0.1766,,1.0507,0.5941,2.6106,,1.2906,,24.7633,,24.7625,,,,,,,,,,,14.0767,14.0772,0.0602,317.847,98.447,99.323,,,,,,,,,,,,
CalCOFI,2105SH,010,,2105_010d,06-May-2021 03:32:01,05-May-2021 19:32:01,31.51702,-120.24030,093.3 070.0,093.3,070.0,20.000,20.141,,14.0786,,14.0792,,14.0789,33.1780,,33.1792,33.1772,,33.1791,33.1792,5.7853,,6.1164,6.1480,5.8303,,6.0984,6.1162,6.1321,252.130,266.0755,265.1367,254.088,277.4296,264.2997,264.7182,0.1840,,1.1009,0.6231,2.6097,,1.2906,,24.7636,,24.7628,,,,,,,,,,,14.0758,14.0764,0.0634,317.848,98.653,99.420,,,,,,,,,,,,
CalCOFI,2105SH,010,,2105_010d,06-May-2021 03:32:02,05-May-2021 19:32:02,31.51700,-120.24030,093.3 070.0,093.3,070.0,21.000,21.148,,14.0770,,14.0775,,14.0773,33.1782,,33.1794,33.1772,,33.1791,33.1793,5.7757,,6.1063,6.1379,5.8208,,6.0886,6.1063,6.1221,251.711,265.6375,264.6994,253.677,276.9771,263.8748,264.2871,0.1837,,1.0989,0.6219,2.6088,,1.2906,,24.7641,,24.7633,,,,,,,,,,,14.0740,14.0745,0.0666,317.829,98.486,99.256,,,,,,,,,,,,
CalCOFI,2105SH,010,,2105_010d,06-May-2021 03:32:05,05-May-2021 19:32:05,31.51700,-120.24030,093.3 070.0,093.3,070.0,22.000,22.155,,14.0730,,14.0736,,14.0733,33.1782,,33.1794,33.1774,,33.1793,33.1794,5.7818,,6.1127,6.1443,5.8214,,6.0892,6.1069,6.1256,251.975,265.9135,264.9749,253.701,277.2622,263.8997,264.4373,0.1746,,1.0371,0.5863,2.6070,,1.2906,,24.7650,,24.7642,,,,,,,,,,,14.0698,14.0705,0.0698,317.769,98.582,99.257,,,,,,,,,,,,
CalCOFI,2105SH,010,,2105_010d,06-May-2021 03:32:07,05-May-2021 19:32:07,31.51700,-120.24031,093.3 070.0,093.3,070.0,23.000,23.162,,14.0673,,14.0664,,14.0669,33.1788,,33.1800,33.1778,,33.1797,33.1799,5.7579,,6.0877,6.1193,5.8183,,6.0860,6.1037,6.1115,250.931,264.8221,263.8855,253.568,276.1347,263.7622,263.8239,0.1694,,1.0015,0.5660,2.6051,,1.2906,,24.7667,,24.7661,,,,,,,,,,,14.0640,14.0631,0.0730,317.638,98.162,99.191,,,,,,,,,,,,
CalCOFI,2105SH,010,,2105_010d,06-May-2021 03:32:09,05-May-2021 19:32:09,31.51698,-120.24032,093.3 070.0,093.3,070.0,24.000,24.169,,14.0526,,14.0530,,14.0528,33.1798,,33.1810,33.1786,,33.1805,33.1808,5.7742,,6.1048,6.1364,5.8136,,6.0811,6.0989,6.1177,251.643,265.5664,264.6285,253.360,276.9036,263.5472,264.0879,0.1760,,1.0466,0.5918,2.6038,,1.2906,,24.7705,,24.7695,,,,,,,,,,,14.0492,14.0496,0.0762,317.303,98.413,99.084,,,,,,,,,,,,
CalCOFI,2105SH,010,,2105_010d,06-May-2021 03:32:11,05-May-2021 19:32:11,31.51698,-120.24032,093.3 070.0,093.3,070.0,25.000,25.176,,14.0416,,14.0425,,14.0421,33.1814,,33.1826,33.1803,,33.1822,33.1824,5.7547,,6.0844,6.1160,5.8148,,6.0824,6.1001,6.1081,250.794,264.6788,263.7426,253.413,275.9867,263.6020,263.6723,0.1747,,1.0377,0.5867,2.6025,,1.2906,,24.7741,,24.7730,,,,,,,,,,,14.0380,14.0389,0.0794,316.989,98.060,99.085,,,,,,,,,,,,
CalCOFI,2105SH,010,,2105_010d,06-May-2021 03:32:12,05-May-2021 19:32:12,31.51698,-120.24032,093.3 070.0,093.3,070.0,26.000,26.183,,14.0287,,14.0288,,14.0288,33.1824,,33.1836,33.1809,,33.1828,33.1832,5.7665,,6.0967,6.1283,5.8051,,6.0723,6.0901,6.1092,251.303,265.2110,264.2737,252.988,276.5364,263.1627,263.7182,0.1696,,1.0029,0.5667,2.6012,,1.2906,,24.7776,,24.7764,,,,,,,,,,,14.0250,14.0251,0.0826,316.685,98.234,98.892,,,,,,,,,,,,
CalCOFI,2105SH,010,,2105_010d,06-May-2021 03:32:14,05-May-2021 19:32:14,31.51698,-120.24032,093.3 070.0,093.3,070.0,27.000,27.190,,14.0175,,14.0177,,14.0176,33.1824,,33.1836,33.1811,,33.1830,33.1833,5.7853,,6.1164,6.1480,5.8015,,6.0686,6.0863,6.1172,252.124,266.0692,265.1304,252.829,277.4231,262.9983,264.0644,0.1768,,1.0520,0.5949,2.6000,,1.2906,,24.7799,,24.7789,,,,,,,,,,,14.0136,14.0139,0.0858,316.494,98.533,98.808,,,,,,,,,,,,
CalCOFI,2105SH,010,,2105_010d,06-May-2021 03:32:15,05-May-2021 19:32:15,31.51697,-120.24032,093.3 070.0,093.3,070.0,28.000,28.197,,13.9957,,13.9958,,13.9958,33.1839,,33.1851,33.1823,,33.1842,33.1847,5.7535,,6.0831,6.1147,5.8075,,6.0748,6.0926,6.1037,250.736,264.6182,263.6820,253.090,275.9241,263.2681,263.4751,0.1750,,1.0398,0.5879,2.5984,,1.2906,,24.7856,,24.7843,,,,,,,,,,,13.9917,13.9918,0.0890,315.977,97.949,98.867,,,,,,,,,,,,
CalCOFI,2105SH,010,,2105_010d,06-May-2021 03:32:18,05-May-2021 19:32:18,31.51696,-120.24032,093.3 070.0,093.3,070.0,29.000,29.204,,13.9757,,13.9759,,13.9758,33.1848,,33.1860,33.1836,,33.1855,33.1858,5.7550,,6.0847,6.1163,5.7942,,6.0610,6.0788,6.0976,250.799,264.6841,263.7478,252.509,275.9921,262.6676,263.2077,0.1545,,0.8991,0.5076,2.5952,,1.2906,,24.7905,,24.7895,,,,,,,,,,,13.9715,13.9718,0.0922,315.542,97.934,98.602,,,,,,,,,,,,
CalCOFI,2105SH,010,,2105_010d,06-May-2021 03:32:20,05-May-2021 19:32:20,31.51696,-120.24033,093.3 070.0,093.3,070.0,30.000,30.212,,13.9617,,13.9619,,13.9618,33.1861,,33.1873,33.1847,,33.1866,33.1870,5.7350,,6.0638,6.0953,5.7864,,6.0530,6.0707,6.0830,249.930,263.7756,262.8410,252.171,275.0536,262.3182,262.5796,0.1729,,1.0255,0.5797,2.5933,,1.2906,,24.7944,,24.7933,,,,,,,,,,,13.9574,13.9577,0.0953,315.193,97.569,98.443,30,13.917,,,262.87,0.525,0.248,1.22,0.059,0.05,0.44,1.65
CalCOFI,2105SH,010,,2105_010d,06-May-2021 03:32:22,05-May-2021 19:32:22,31.51695,-120.24034,093.3 070.0,093.3,070.0,31.000,31.219,,13.9429,,13.9434,,13.9432,33.1873,,33.1885,33.1859,,33.1878,33.1882,5.7289,,6.0574,6.0889,5.7849,,6.0514,6.0692,6.0791,249.663,263.4965,262.5623,252.102,274.7652,262.2469,262.4046,0.1620,,0.9508,0.5370,2.5908,,1.2906,,24.7992,,24.7981,,,,,,,,,,,13.9385,13.9390,0.0985,314.764,97.428,98.380,,,,,,,,,,,,
CalCOFI,2105SH,010,,2105_010d,06-May-2021 03:32:25,05-May-2021 19:32:25,31.51694,-120.24034,093.3 070.0,093.3,070.0,32.000,32.226,,13.9255,,13.9255,,13.9255,33.1888,,33.1900,33.1872,,33.1891,33.1896,5.7178,,6.0458,6.0773,5.7770,,6.0432,6.0610,6.0692,249.175,262.9863,262.0531,251.758,274.2382,261.8913,261.9722,0.1562,,0.9108,0.5143,2.5871,,1.2906,,24.8040,,24.8028,,,,,,,,,,,13.9210,13.9210,0.1017,314.334,97.205,98.211,,,,,,,,,,,,
CalCOFI,2105SH,010,,2105_010d,06-May-2021 03:32:25,05-May-2021 19:32:25,31.51694,-120.24034,093.3 070.0,093.3,070.0,33.000,33.233,,13.8998,,13.8993,,13.8996,33.1916,,33.1928,33.1885,,33.1904,33.1916,5.7147,,6.0425,6.0741,5.7831,,6.0495,6.0673,6.0707,249.040,262.8452,261.9123,252.019,274.0924,262.1611,262.0367,0.1862,,1.1158,0.6317,2.5860,,1.2906,,24.8115,,24.8092,,,,,,,,,,,13.8952,13.8947,0.1048,313.646,97.104,98.262,,,,,,,,,,,,
CalCOFI,2105SH,010,,2105_010d,06-May-2021 03:32:26,05-May-2021 19:32:26,31.51694,-120.24034,093.3 070.0,093.3,070.0,34.000,34.240,,13.8655,,13.8651,,13.8653,33.1943,,33.1955,33.1912,,33.1931,33.1943,5.7252,,6.0535,6.0851,5.7888,,6.0554,6.0732,6.0792,249.496,263.3219,262.3881,252.268,274.5849,262.4185,262.4033,0.1561,,0.9101,0.5139,2.5848,,1.2906,,24.8207,,24.8184,,,,,,,,,,,13.8607,13.8603,0.1080,312.800,97.216,98.293,,,,,,,,,,,,
CalCOFI,2105SH,010,,2105_010d,06-May-2021 03:32:29,05-May-2021 19:32:29,31.51694,-120.24036,093.3 070.0,093.3,070.0,35.000,35.247,,13.8409,,13.8416,,13.8413,33.1949,,33.1961,33.1932,,33.1951,33.1956,5.7309,,6.0595,6.0910,5.7807,,6.0470,6.0648,6.0779,249.743,263.5801,262.6458,251.912,274.8516,262.0505,262.3482,0.1523,,0.8839,0.4990,2.5822,,1.2906,,24.8263,,24.8248,,,,,,,,,,,13.8360,13.8367,0.1111,312.297,97.265,98.110,,,,,,,,,,,,
CalCOFI,2105SH,010,,2105_010d,06-May-2021 03:32:31,05-May-2021 19:32:31,31.51694,-120.24036,093.3 070.0,093.3,070.0,36.000,36.254,,13.8233,,13.8235,,13.8234,33.1966,,33.1978,33.1951,,33.1970,33.1974,5.7289,,6.0574,6.0889,5.7814,,6.0478,6.0655,6.0772,249.651,263.4840,262.5498,251.943,274.7523,262.0826,262.3162,0.1477,,0.8520,0.4810,2.5792,,1.2906,,24.8312,,24.8299,,,,,,,,,,,13.8182,13.8184,0.1143,311.856,97.196,98.087,,,,,,,,,,,,
CalCOFI,2105SH,010,,2105_010d,06-May-2021 03:32:34,05-May-2021 19:32:34,31.51693,-120.24036,093.3 070.0,093.3,070.0,37.000,37.261,,13.8132,,13.8136,,13.8134,33.1973,,33.1985,33.1958,,33.1977,33.1981,5.7221,,6.0503,6.0818,5.7764,,6.0426,6.0604,6.0711,249.356,263.1756,262.2420,251.723,274.4337,261.8551,262.0486,0.1494,,0.8638,0.4877,2.5772,,1.2906,,24.8338,,24.8326,,,,,,,,,,,13.8079,13.8084,0.1174,311.632,97.061,97.983,,,,,,,,,,,,
CalCOFI,2105SH,010,,2105_010d,06-May-2021 03:32:35,05-May-2021 19:32:35,31.51692,-120.24036,093.3 070.0,093.3,070.0,38.000,38.269,,13.7969,,13.7970,,13.7970,33.1988,,33.2000,33.1968,,33.1987,33.1994,5.7084,,6.0359,6.0675,5.7788,,6.0451,6.0629,6.0652,248.758,262.5504,261.6180,251.827,273.7878,261.9626,261.7903,0.1573,,0.9184,0.5186,2.5755,,1.2906,,24.8384,,24.8369,,,,,,,,,,,13.7915,13.7916,0.1205,311.227,96.798,97.991,,,,,,,,,,,,
CalCOFI,2105SH,010,,2105_010d,06-May-2021 03:32:37,05-May-2021 19:32:37,31.51690,-120.24036,093.3 070.0,093.3,070.0,39.000,39.276,,13.7803,,13.7807,,13.7805,33.2000,,33.2012,33.1982,,33.2001,33.2007,5.6930,,6.0198,6.0514,5.7744,,6.0405,6.0583,6.0549,248.085,261.8469,260.9157,251.634,273.0610,261.7632,261.3395,0.1626,,0.9549,0.5393,2.5740,,1.2906,,24.8427,,24.8413,,,,,,,,,,,13.7748,13.7752,0.1237,310.840,96.504,97.884,,,,,,,,,,,,
CalCOFI,2105SH,010,,2105_010d,06-May-2021 03:32:39,05-May-2021 19:32:39,31.51691,-120.24036,093.3 070.0,093.3,070.0,40.000,40.283,,13.7611,,13.7612,,13.7612,33.2018,,33.2030,33.2002,,33.2021,33.2026,5.6955,,6.0225,6.0540,5.7572,,6.0227,6.0405,6.0473,248.194,261.9608,261.0294,250.884,273.1787,260.9879,261.0087,0.1499,,0.8672,0.4896,2.5714,,1.2906,,24.8481,,24.8468,,,,,,,,,,,13.7554,13.7555,0.1268,310.352,96.511,97.556,,,,,,,,,,,,
CalCOFI,2105SH,010,,2105_010d,06-May-2021 03:32:41,05-May-2021 19:32:41,31.51691,-120.24036,093.3 070.0,093.3,070.0,41.000,41.290,,13.7288,,13.7279,,13.7284,33.2056,,33.2068,33.2031,,33.2050,33.2059,5.6825,,6.0089,6.0404,5.7343,,5.9990,6.0168,6.0286,247.624,261.3649,260.4347,249.884,272.5631,259.9543,260.1945,0.1568,,0.9150,0.5166,2.5678,,1.2906,,24.8577,,24.8559,,,,,,,,,,,13.7230,13.7222,0.1299,309.466,96.229,97.104,,,,,,,,,,,,
CalCOFI,2105SH,010,,2105_010d,06-May-2021 03:32:42,05-May-2021 19:32:42,31.51690,-120.24036,093.3 070.0,093.3,070.0,42.000,42.297,,13.6704,,13.6692,,13.6698,33.2125,,33.2137,33.2087,,33.2106,33.2122,5.6698,,5.9956,6.0271,5.7321,,5.9967,6.0145,6.0208,247.067,260.7826,259.8534,249.784,271.9615,259.8510,259.8522,0.1477,,0.8520,0.4810,2.5650,,1.2906,,24.8749,,24.8722,,,,,,,,,,,13.6645,13.6633,0.1330,307.851,95.904,96.954,,,,,,,,,,,,
CalCOFI,2105SH,010,,2105_010d,06-May-2021 03:32:44,05-May-2021 19:32:44,31.51690,-120.24036,093.3 070.0,093.3,070.0,43.000,43.305,,13.5839,,13.5839,,13.5839,33.2209,,33.2221,33.2158,,33.2177,33.2199,5.6981,,6.0252,6.0567,5.7376,,6.0024,6.0202,6.0385,248.293,262.0643,261.1328,250.016,273.2856,260.0907,260.6118,0.1452,,0.8346,0.4712,2.5619,,1.2906,,24.8991,,24.8951,,,,,,,,,,,13.5779,13.5779,0.1361,305.572,96.217,96.881,,,,,,,,,,,,
CalCOFI,2105SH,010,,2105_010d,06-May-2021 03:32:47,05-May-2021 19:32:47,31.51690,-120.24038,093.3 070.0,093.3,070.0,44.000,44.312,,13.5391,,13.5375,,13.5383,33.2265,,33.2277,33.2243,,33.2262,33.2270,5.6761,,6.0022,6.0337,5.7427,,6.0077,6.0255,6.0296,247.332,261.0597,260.1299,250.235,272.2477,260.3171,260.2235,0.1442,,0.8276,0.4673,2.5570,,1.2906,,24.9125,,24.9111,,,,,,,,,,,13.5330,13.5313,0.1393,304.321,95.761,96.881,,,,,,,,,,,,
CalCOFI,2105SH,010,,2105_010d,06-May-2021 03:32:50,05-May-2021 19:32:50,31.51690,-120.24038,093.3 070.0,093.3,070.0,45.000,45.319,,13.5054,,13.5033,,13.5044,33.2378,,33.2390,33.2353,,33.2372,33.2381,5.6550,,5.9801,6.0116,5.7409,,6.0058,6.0236,6.0176,246.412,260.0979,259.1699,250.152,271.2541,260.2313,259.7006,0.1440,,0.8262,0.4665,2.5514,,1.2906,,24.9281,,24.9266,,,,,,,,,,,13.4992,13.4970,0.1426,302.864,95.347,96.789,,,,,,,,,,,,
CalCOFI,2105SH,010,,2105_010d,06-May-2021 03:32:51,05-May-2021 19:32:51,31.51688,-120.24038,093.3 070.0,093.3,070.0,46.000,46.326,,13.4759,,13.4758,,13.4759,33.2443,,33.2455,33.2417,,33.2436,33.2446,5.6531,,5.9781,6.0096,5.7426,,6.0076,6.0254,6.0175,246.324,260.0059,259.0781,250.226,271.1591,260.3078,259.6930,0.1448,,0.8318,0.4697,2.5502,,1.2906,,24.9391,,24.9371,,,,,,,,,,,13.4695,13.4694,0.1456,301.839,95.261,96.768,,,,,,,,,,,,
CalCOFI,2105SH,010,,2105_010d,06-May-2021 03:32:51,05-May-2021 19:32:51,31.51688,-120.24038,093.3 070.0,093.3,070.0,47.000,47.333,,13.4617,,13.4613,,13.4615,33.2474,,33.2486,33.2443,,33.2462,33.2474,5.6792,,6.0054,6.0369,5.7402,,6.0051,6.0229,6.0299,247.462,261.1956,260.2656,250.118,272.3881,260.1962,260.2309,0.1421,,0.8130,0.4591,2.5491,,1.2906,,24.9444,,24.9421,,,,,,,,,,,13.4552,13.4548,0.1486,301.363,95.675,96.699,,,,,,,,,,,,
CalCOFI,2105SH,010,,2105_010d,06-May-2021 03:32:53,05-May-2021 19:32:53,31.51688,-120.24038,093.3 070.0,093.3,070.0,48.000,48.341,,13.4474,,13.4475,,13.4475,33.2474,,33.2486,33.2451,,33.2470,33.2478,5.6759,,6.0020,6.0335,5.7432,,6.0082,6.0260,6.0298,247.317,261.0440,260.1143,250.250,272.2315,260.3326,260.2235,0.1434,,0.8220,0.4642,2.5478,,1.2906,,24.9473,,24.9456,,,,,,,,,,,13.4407,13.4409,0.1517,301.110,95.592,96.724,,,,,,,,,,,,
CalCOFI,2105SH,010,,2105_010d,06-May-2021 03:32:56,05-May-2021 19:32:56,31.51688,-120.24038,093.3 070.0,093.3,070.0,49.000,49.348,,13.4474,,13.4474,,13.4474,33.2473,,33.2485,33.2462,,33.2481,33.2483,5.6658,,5.9914,6.0229,5.7320,,5.9966,6.0144,6.0187,246.875,260.5819,259.6531,249.760,271.7542,259.8261,259.7396,0.1375,,0.7809,0.4411,2.5443,,1.2906,,24.9472,,24.9465,,,,,,,,,,,13.4406,13.4406,0.1547,301.143,95.421,96.535,,,,,,,,,,,,
CalCOFI,2105SH,010,,2105_010d,06-May-2021 03:32:58,05-May-2021 19:32:58,31.51687,-120.24039,093.3 070.0,093.3,070.0,50.000,50.355,,13.4397,,13.4399,,13.4398,33.2471,,33.2483,33.2457,,33.2476,33.2480,5.6658,,5.9914,6.0229,5.7377,,6.0025,6.0203,6.0216,246.877,260.5840,259.6552,250.010,271.7563,260.0845,259.8699,0.1361,,0.7711,0.4356,2.5426,,1.2906,,24.9487,,24.9476,,,,,,,,,,,13.4328,13.4330,0.1577,301.030,95.406,96.617,,,,,,,,,,,,
CalCOFI,2105SH,010,,2105_010d,06-May-2021 03:32:59,05-May-2021 19:32:59,31.51686,-120.24040,093.3 070.0,093.3,070.0,51.000,51.362,,13.4313,,13.4318,,13.4316,33.2487,,33.2499,33.2473,,33.2492,33.2496,5.6744,,6.0004,6.0319,5.7346,,5.9993,6.0171,6.0245,247.250,260.9740,260.0444,249.874,272.1592,259.9440,259.9942,0.1365,,0.7739,0.4372,2.5414,,1.2906,,24.9517,,24.9505,,,,,,,,,,,13.4243,13.4248,0.1608,300.775,95.535,96.549,51,13.508,,,261.74,0.601,0.228,2.49,0.119,0.00,0.49,1.65
CalCOFI,2105SH,010,,2105_010d,06-May-2021 03:33:01,05-May-2021 19:33:01,31.51686,-120.24040,093.3 070.0,093.3,070.0,52.000,52.369,,13.4225,,13.4230,,13.4228,33.2505,,33.2517,33.2493,,33.2512,33.2515,5.6729,,5.9988,6.0303,5.7303,,5.9948,6.0127,6.0215,247.181,260.9018,259.9724,249.686,272.0847,259.7496,259.8610,0.1339,,0.7556,0.4270,2.5399,,1.2906,,24.9548,,24.9539,,,,,,,,,,,13.4153,13.4158,0.1638,300.502,95.493,96.461,,,,,,,,,,,,
CalCOFI,2105SH,010,,2105_010d,06-May-2021 03:33:03,05-May-2021 19:33:03,31.51686,-120.24040,093.3 070.0,093.3,070.0,53.000,53.377,,13.4162,,13.4167,,13.4165,33.2515,,33.2527,33.2503,,33.2522,33.2525,5.6634,,5.9889,6.0204,5.7234,,5.9877,6.0055,6.0130,246.771,260.4732,259.5446,249.383,271.6419,259.4365,259.4906,0.1335,,0.7528,0.4254,2.5377,,1.2906,,24.9569,,24.9559,,,,,,,,,,,13.4089,13.4094,0.1668,300.330,95.323,96.332,,,,,,,,,,,,
CalCOFI,2105SH,010,,2105_010d,06-May-2021 03:33:05,05-May-2021 19:33:05,31.51686,-120.24040,093.3 070.0,093.3,070.0,54.000,54.384,,13.4031,,13.4026,,13.4029,33.2533,,33.2545,33.2515,,33.2534,33.2540,5.6389,,5.9633,5.9947,5.6904,,5.9535,5.9714,5.9831,245.701,259.3546,258.4280,247.946,270.4863,257.9511,258.1896,0.1300,,0.7283,0.4117,2.5343,,1.2906,,24.9610,,24.9597,,,,,,,,,,,13.3956,13.3952,0.1698,299.970,94.886,95.750,,,,,,,,,,,,
CalCOFI,2105SH,010,,2105_010d,06-May-2021 03:33:07,05-May-2021 19:33:07,31.51686,-120.24040,093.3 070.0,093.3,070.0,55.000,55.391,,13.3556,,13.3550,,13.3553,33.2635,,33.2647,33.2607,,33.2626,33.2637,5.6134,,5.9366,5.9680,5.6827,,5.9455,5.9634,5.9657,244.584,258.1869,257.2624,247.605,269.2799,257.5987,257.4306,0.1340,,0.7563,0.4274,2.5320,,1.2906,,24.9784,,24.9764,,,,,,,,,,,13.3480,13.3474,0.1728,298.334,94.370,95.533,,,,,,,,,,,,